Location: Jaite
(41.2884°N, 81.5737°W)
Time: 12:13:48
(UTC+00:00)

Cosmos 2016 Rocket - Pass Details

Date: 15 November 2025
Orbit: 946 x 999 km, 83.0° (Epoch: 11 December)

Event Time Altitude Azimuth Distance (km) Brightness Sun altitude
Rises 10:22:30 0° 345° (NNW) 3,728 6.8 -21.1°
Reaches altitude 10° 10:25:09 10° 339° (NNW) 2,772 6.1 -20.6°
Maximum altitude 10:31:04 42° 271° (W) 1,375 4.3 -19.5°
Drops below altitude 10° 10:36:55 10° 202° (SSW) 2,731 6.2 -18.4°
Sets 10:39:31 0° 196° (SSW) 3,667 6.9 -17.9°
